Location: Caltech
(34.1382°N, 118.1253°W)
Time: 06:08:18
(UTC-08:00)

CZ-2C R/B - Visible Passes

Search period start: 06 March 2015 00:00
Search period end: 16 March 2015 01:00
Orbit: 668 x 787 km, 98.1° (Epoch: 04 March)

Date Brightness Start Highest point End Pass type
(mag) Time Alt. Az. Time Alt. Az. Time Alt. Az.
06 Mar 3.6 19:11:39 10° S 19:16:10 41° W 19:20:33 10° NNW visible
07 Mar 2.4 18:23:50 10° SSE 18:28:28 57° ENE 18:33:01 10° N visible
07 Mar 5.5 20:05:36 10° WSW 20:07:09 11° W 20:08:22 10° WNW visible
08 Mar 3.8 20:14:38 10° SSW 20:19:03 38° W 20:23:21 10° NNW visible
09 Mar 2.3 19:26:42 10° SSE 19:31:20 62° ENE 19:35:54 10° N visible
10 Mar 4.0 20:17:38 10° SSW 20:21:57 35° W 20:26:09 10° NNW visible
11 Mar 2.2 19:29:33 10° SSE 19:34:12 67° ENE 19:38:46 10° N visible
12 Mar 4.1 20:20:38 10° SSW 20:24:50 32° W 20:28:56 10° NW visible
13 Mar 2.2 19:32:26 10° SSE 19:37:04 72° ENE 19:41:39 10° N visible
14 Mar 4.3 20:23:38 10° SSW 20:27:43 29° W 20:31:42 10° NW visible
15 Mar 2.2 19:35:18 10° SSE 19:39:56 79° ENE 19:44:31 10° N visible
